Location: Albuquerque Trailhead
(34.7934°N, 106.3736°W)
Time: 23:24:06
(UTC+00:00)

Terra - Pass Details

Date: 20 June 2021
Orbit: 701 x 703 km, 98.2° (Epoch: 01 August)

Event Time Altitude Azimuth Distance (km) Brightness Sun altitude
Exits shadow 04:12:14 21° 86° (E) 1,572 3.3 -18.5°
Maximum altitude 04:13:13 22° 68° (ENE) 1,515 3.3 -18.7°
Drops below altitude 10° 04:16:50 10° 19° (NNE) 2,175 4.7 -19.1°
Sets 04:19:31 0° 4° (N) 3,098 5.8 -19.5°
